Terug naar catalogus

STARLINK-36299

ActiefCommunicatieVLEO
NORAD 68534·PAYLOAD·🇺🇸 United States

Gelanceerd Mar 30, 2026 vanaf Cape Canaveral Space Force Station

Loading…

Volgende Passages (komende 24 uur)

TLE

VersSource: CelesTrak SupGP

Epoch: Sep 15, 2026, 04:11 UTC

1 68534C 26068AC  26258.17479167  .00039103  00000+0  11548-2 0  2587
2 68534  53.1581 324.6738 0001148  95.8533  85.5881 15.34383978    18

Volg STARLINK-36299 in realtime met AllMySat

Download on the App Store